Regional Weather Roundup
Issued by NWS

Current Version |  Previous Version |  Text Only |  Print | Product List |  Glossary On
Versions: 1 2 3 4 5 6 7 8 9 10 11 12 13 14 15 16 17 18 19 20 21 22 23 24 25 26 27 28 29 30 31 32 33 34 35 36 37 38 39 40 41 42 43 44 45 46 47 48 49 50
501
ASUS43 KFSD 201110
RWRSD

WEATHER ROUNDUP FOR SOUTH DAKOTA
NATIONAL WEATHER SERVICE SIOUX FALLS SD
600 AM CDT THU JUN 20 2024

NOTE: "FAIR" INDICATES FEW OR NO CLOUDS BELOW 12,000 FEET WITH NO
SIGNIFICANT WEATHER AND/OR OBSTRUCTIONS TO VISIBILITY.


SDZ001>005-009-010-012>017-201200-
NORTHWEST AND NORTH CENTRAL SOUTH DAKOTA

CITY           SKY/WX    TMP DP  RH WIND       PRES   REMARKS
BUFFALO          N/A     53  50  89 SE10      30.18S TC  12
FAITH            N/A     55  54  96 SE17G24   30.21F TC  13
MOBRIDGE       CLOUDY    59  53  80 SE8       30.23F TC  15
$$

SDZ012>016-024>037-041>051-057-063-072>074-201200-
SOUTHWEST AND SOUTH CENTRAL SOUTH DAKOTA

CITY           SKY/WX    TMP DP  RH WIND       PRES   REMARKS
RAPID CTY ARPT CLOUDY    57  53  86 SE13      30.21R TC  14
PIERRE         CLOUDY    57  57 100 E9        30.22F TC  14
CUSTER         CLOUDY    50  47  89 CALM      30.25S FOG     TC  10
ELLSWORTH AFB  CLOUDY    56  52  87 SE12      30.18R TC  13
PHILIP         LGT RAIN  57  57 100 E10       30.21S FOG     TC  14
PINE RIDGE     CLOUDY    59  56  89 NE3       30.18S TC  15
SPEARFISH      PTCLDY    50  46  87 VRB5G14   30.20S TC  10
WINNER         LGT RAIN  60  59  96 E10       30.22S TC  16
$$

SDZ004>011-016>023-039-040-201200-
NORTHEAST SOUTH DAKOTA

CITY           SKY/WX    TMP DP  RH WIND       PRES   REMARKS
ABERDEEN       CLOUDY    58  54  86 E5        30.30F TC  14
WATERTOWN      LGT RAIN  58  55  90 SE9       30.31F TC  14
BROOKINGS      LGT RAIN  54  51  90 NE5       30.34F TC  12
SISSETON         N/A     58  56  93 CALM      30.33F TC  14
$$

SDZ017-020-022-023-036>040-048>070-201200-
SOUTHEAST SOUTH DAKOTA

CITY           SKY/WX    TMP DP  RH WIND       PRES   REMARKS
SIOUX FALLS    LGT RAIN  62  58  86 E10       30.30F TC  17
HURON          LGT RAIN  56  52  86 E6        30.31S TC  13
CHAMBERLAIN    LGT RAIN  58  58 100 E15G21    30.24S TC  15
MADISON        LGT RAIN  55  55 100 NE8       30.31F TC  13
MITCHELL       LGT RAIN  59  55  87 E14       30.25F TC  15
YANKTON          N/A     62  60  93 E10       30.26F TC  17
$$

ABBREVIATIONS USED IN REMARKS
   TC - TEMPERATURE IN CELSIUS
  WCI - WIND CHILL INDEX
   HX - HEAT INDEX
  VSB - VISIBILITY